Location: Dannhausen
(51.8650°N, 10.1026°E)
Time: 07:37:35
(UTC+00:00)

ASTEX 1 - Pass Details

Date: 09 April 2020
Orbit: 721 x 743 km, 92.7° (Epoch: 01 June)

Event Time Altitude Azimuth Distance (km) Brightness Sun altitude
Exits shadow 21:49:59 64° 262° (W) 822 3.6 -27.0°
Maximum altitude 21:50:03 64° 267° (W) 821 3.6 -27.0°
Drops below altitude 10° 21:55:00 10° 349° (N) 2,250 6.9 -27.3°
Sets 21:57:20 0° 353° (N) 3,174 7.8 -27.5°
